User: anonymous   Login
Location: Unspecified
(0.0000°N, 0.0000°E)
Time: 13:24:50
(UTC+00:00)
Language:

USA 113 - Orbit

View from above orbital plane
View from above orbital plane
View from above satellite
View from above satellite

Ground track
Ground track

The orbit data is extracted from the following two-line orbital elements,

1 23628U 95038A   21015.97864878 -.00000347  00000-0  00000+0 0  9996
2 23628  11.6261  28.5537 0001478 255.0964 288.1538  1.00270823 11775
Epoch (UTC): 15 January 2021 23:29:15
Eccentricity: 0.0001478
inclination: 11.6261°
perigee height: 35780 km
apogee height: 35793 km
right ascension of ascending node: 28.5537°
argument of perigee: 255.0964°
revolutions per day: 1.00270823
mean anomaly at epoch: 288.1538°
orbit number at epoch: 1177

The dashed part of the orbit path shows where the satellite is in the earth's shadow,  

DLR